Regional Weather Roundup
Issued by NWS Little Rock, AR

Home | Current Version | Previous Version | Graphics & Text | Print | Product List | Glossary On
Versions: 1 2 3 4 5 6 7 8 9 10 11 12 13 14 15 16 17 18 19 20 21 22 23 24 25 26 27 28 29 30 31 32
000
ASUS44 KLZK 231305
RWRLZK

WEATHER ROUNDUP FOR ARKANSAS
NATIONAL WEATHER SERVICE LITTLE ROCK AR
800 AM CDT MON APR 23 2018

NOTE: "FAIR" INDICATES FEW OR NO CLOUDS BELOW 12,000 FEET WITH NO
SIGNIFICANT WEATHER AND/OR OBSTRUCTIONS TO VISIBILITY.

ARZ001-003-010-029-231400-
NORTHWEST ARKANSAS

CITY           SKY/WX    TMP DP  RH WIND       PRES   REMARKS
FAYETTEVILLE   CLOUDY    51  50  96 N7        29.99R
FORT SMITH     PTSUNNY   55  51  86 W10       29.99R
HARRISON       CLOUDY    53  52  96 NW8       29.96S
BENTONVILLE    CLOUDY    51  50  96 N10       30.03R
ROGERS         CLOUDY    51  50  96 N6        30.01S FOG
SILOAM SPGS    CLOUDY    52  50  93 N13       30.01R
HIGHFILL       CLOUDY    52  52 100 N12       30.01R
SPRINGDALE     CLOUDY    52  52 100 N8        30.02R FOG
$$

ARZ004-005-016-231400-
NORTH CENTRAL ARKANSAS

CITY           SKY/WX    TMP DP  RH WIND       PRES   REMARKS
BATESVILLE     LGT RAIN  55  54  96 CALM      29.89R
FLIPPIN        LGT RAIN  55  53  93 VRB7G16   29.94R FOG
MTN HOME       LGT RAIN  54  53  97 VRB6      29.92R
$$

ARZ040-041-231400-
WEST CENTRAL ARKANSAS

CITY           SKY/WX    TMP DP  RH WIND       PRES   REMARKS
MENA           NOT AVBL
MOUNT IDA      CLOUDY    56  52  86 VRB5      29.93R
$$

ARZ009-017-025-026-028-231400-
NORTHEAST ARKANSAS

CITY           SKY/WX    TMP DP  RH WIND       PRES   REMARKS
CORNING        FAIR      54  54 100 N12       29.84S FOG
JONESBORO      LGT RAIN  55  55 100 NW8       29.84R
NEWPORT        LGT RAIN  56  54  93 N9        29.87R
WALNUT RIDGE   LGT RAIN  54  53  97 N12       29.86R
BLYTHEVILLE    LGT RAIN  56  55  97 NW6       29.82R
NW BLYTHEVILLE LGT RAIN  55  54  94 NW5       29.82
$$

ARZ022-023-033-042-044-231400-
CENTRAL ARKANSAS

CITY           SKY/WX    TMP DP  RH WIND       PRES   REMARKS
LITTLE ROCK    CLOUDY    56  53  90 W12       29.91R
N LITTLE ROCK    N/A     53  52  95 W6        29.88R
JACKSONVILLE   CLOUDY    56  55  96 W9        29.90R
CONWAY         CLOUDY    55  54  94 W7        29.92R
SEARCY         CLOUDY    56  56 100 CALM      29.89R
HOT SPRINGS    CLOUDY    57  54  89 W3        29.94R
RUSSELLVILLE   CLOUDY    56  53  90 NW9       29.93R
CLINTON        PTSUNNY   57  54  88 VRB5      29.91R
$$

ARZ036-231400-
EAST ARKANSAS

CITY           SKY/WX    TMP DP  RH WIND       PRES   REMARKS
WEST MEMPHIS   CLOUDY    56  56 100 SW6       29.84S FOG
$$

ARZ050-053-066-070-073-231400-
SOUTHWEST ARKANSAS

CITY           SKY/WX    TMP DP  RH WIND       PRES   REMARKS
ARKADELPHIA    CLOUDY    54  52  93 SW5       29.97R
CAMDEN         CLOUDY    55  50  82 W5        29.96R
TEXARKANA      CLOUDY    56  52  86 W10       29.99R
EL DORADO      PTSUNNY   55  53  93 W8        29.98R
DE QUEEN       CLOUDY    55  53  93 W9        29.98R
$$

ARZ056-057-069-231400-
SOUTHEAST ARKANSAS

CITY           SKY/WX    TMP DP  RH WIND       PRES   REMARKS
PINE BLUFF     FAIR      55  51  86 W7        29.92R
STUTTGART      CLOUDY    55  54  94 W13       29.90R
MONTICELLO     PTSUNNY   56  51  84 W12       29.94R

$$






USA.gov is the U.S. government's official web portal to all federal, state and local government web resources and services.